QPF
0.00 0.00 0.00 0.00 0.00 0.00 0.00 0.00 0.00 0.00 0.00 0.00 0.00 0.00 0.00 0.00 0.00 0.00 0.00 0.00 0.00 0.00 0.00 0.00 0.00 0.00 0.00 0.00 0.00 0.00 0.00 0.00 0.00 0.00 0.00 0.00 0.00 0.00 0.00 0.00 0.00 0.00 0.00 0.00 0.00 0.00 0.00
0.00 0.00 0.00 0.00 0.00 0.00 0.00 0.00 0.00 0.00 0.00 0.00 0.00 0.00 0.00 0.00 0.00 0.00 0.00 0.00 0.00 0.00 0.00 0.00 0.00 0.00 0.00 0.00 0.00 0.00 0.00 0.00 0.00 0.00 0.00 0.00 0.00 0.00 0.00 0.00 0.00 0.00 0.00 0.00 0.00 0.00 0.00
0.00 0.00 0.00 0.00 0.00 0.00 0.00 0.00 0.00 0.00 0.00 0.00 0.00 0.00 0.00 0.00 0.00 0.00 0.00 0.00 0.00 0.00 0.00 0.00 0.00 0.00 0.00 0.00 0.00 0.00 0.00 0.00 0.00 0.00 0.00 0.00 0.00 0.00 0.00 0.00 0.00 0.00 0.00 0.00 0.00 0.00 0.00
0.03 0.00 0.00 0.00 0.00 0.00 0.00 0.00 0.00 0.00 0.00 0.00 0.00 0.00 0.00 0.00 0.00 0.00 0.00 0.00 0.00 0.00 0.00 0.00 0.00 0.00 0.00 0.00 0.00 0.00 0.00 0.00 0.00 0.00 0.00 0.00 0.00 0.00 0.00 0.00 0.00 0.00 0.00 0.00 0.00 0.00 0.00
0.10 0.06 0.03 0.01 0.00 0.00 0.00 0.00 0.00 0.00 0.00 0.00 0.00 0.00 0.00 0.00 0.00 0.00 0.00 0.00 0.00 0.00 0.00 0.00 0.00 0.00 0.00 0.00 0.00 0.00 0.00 0.00 0.00 0.00 0.00 0.00 0.00 0.00 0.00 0.00 0.00 0.00 0.00 0.00 0.00 0.00 0.00
0.14 0.11 0.06 0.04 0.02 0.00 0.00 0.00 0.00 0.00 0.00 0.00 0.00 0.00 0.00 0.00 0.00 0.00 0.00 0.00 0.00 0.00 0.00 0.00 0.00 0.00 0.00 0.00 0.00 0.00 0.00 0.00 0.00 0.00 0.00 0.00 0.00 0.00 0.00 0.00 0.00 0.00 0.00 0.00 0.00 0.00 0.00
0.11 0.12 0.09 0.07 0.04 0.01 0.00 0.00 0.00 0.00 0.00 0.00 0.00 0.00 0.00 0.00 0.00 0.00 0.00 0.00 0.00 0.00 0.00 0.00 0.00 0.00 0.00 0.00 0.00 0.00 0.00 0.00 0.00 0.00 0.00 0.00 0.00 0.00 0.00 0.00 0.00 0.00 0.00 0.00 0.00 0.00 0.00
0.04 0.12 0.14 0.14 0.10 0.07 0.04 0.01 0.00 0.00 0.00 0.00 0.00 0.00 0.00 0.00 0.00 0.01 0.00 0.01 0.00 0.00 0.00 0.00 0.00 0.00 0.00 0.00 0.00 0.00 0.00 0.00 0.00 0.00 0.00 0.00 0.00 0.00 0.00 0.00 0.00 0.00 0.00 0.00 0.00 0.00 0.00
0.01 0.06 0.13 0.13 0.14 0.12 0.09 0.06 0.02 0.00 0.00 0.00 0.00 0.00 0.00 0.00 0.01 0.01 0.00 0.00 0.00 0.00 0.02 0.00 0.00 0.00 0.00 0.00 0.00 0.00 0.00 0.00 0.00 0.00 0.00 0.00 0.00 0.00 0.00 0.00 0.00 0.00 0.00 0.00 0.00 0.00 0.00
0.00 0.01 0.06 0.13 0.17 0.19 0.17 0.14 0.08 0.02 0.00 0.00 0.00 0.00 0.00 0.01 0.01 0.00 0.00 0.00 0.01 0.06 0.24 0.06 0.00 0.00 0.00 0.00 0.00 0.00 0.00 0.00 0.00 0.00 0.00 0.00 0.00 0.00 0.00 0.00 0.00 0.00 0.00 0.00 0.00 0.00 0.00
0.00 0.02 0.03 0.04 0.08 0.17 0.25 0.26 0.25 0.16 0.05 0.00 0.00 0.00 0.00 0.00 0.00 0.00 0.00 0.00 0.04 0.22 0.62 0.10 0.00 0.00 0.00 0.00 0.00 0.00 0.00 0.00 0.00 0.00 0.00 0.00 0.00 0.00 0.00 0.00 0.00 0.00 0.00 0.00 0.00 0.00 0.00
0.00 0.00 0.02 0.07 0.08 0.11 0.15 0.24 0.36 0.40 0.30 0.17 0.05 0.01 0.00 0.00 0.00 0.00 0.00 0.00 0.09 0.56 0.59 0.04 0.00 0.00 0.00 0.00 0.00 0.00 0.00 0.00 0.00 0.00 0.00 0.00 0.00 0.00 0.00 0.00 0.00 0.00 0.00 0.00 0.00 0.00 0.00
0.00 0.00 0.01 0.02 0.06 0.11 0.15 0.22 0.35 0.49 0.52 0.45 0.23 0.05 0.00 0.00 0.00 0.01 0.02 0.10 0.44 0.62 0.20 0.01 0.00 0.00 0.00 0.00 0.00 0.00 0.00 0.00 0.00 0.00 0.00 0.00 0.00 0.00 0.00 0.00 0.00 0.00 0.00 0.00 0.00 0.00 0.00
0.01 0.01 0.01 0.01 0.02 0.06 0.11 0.17 0.26 0.42 0.55 0.59 0.50 0.30 0.28 0.16 0.03 0.03 0.04 0.24 0.63 0.30 0.04 0.00 0.00 0.00 0.00 0.00 0.00 0.00 0.00 0.00 0.00 0.00 0.00 0.00 0.00 0.00 0.00 0.00 0.00 0.00 0.00 0.00 0.00 0.00 0.00
0.01 0.01 0.01 0.01 0.02 0.05 0.09 0.11 0.18 0.31 0.48 0.67 0.73 0.68 0.59 0.47 0.20 0.09 0.10 0.44 0.42 0.14 0.03 0.02 0.01 0.02 0.00 0.00 0.00 0.00 0.00 0.00 0.00 0.00 0.00 0.00 0.00 0.00 0.00 0.00 0.00 0.00 0.00 0.00 0.00 0.00 0.00
0.01 0.01 0.00 0.01 0.02 0.05 0.10 0.16 0.24 0.28 0.26 0.28 0.40 0.45 0.44 0.40 0.39 0.30 0.33 0.47 0.31 0.14 0.05 0.02 0.04 0.04 0.01 0.00 0.00 0.00 0.00 0.00 0.00 0.00 0.00 0.00 0.00 0.00 0.00 0.00 0.00 0.00 0.00 0.00 0.00 0.00 0.00
0.01 0.01 0.01 0.01 0.04 0.08 0.18 0.30 0.34 0.25 0.14 0.12 0.15 0.25 0.42 0.42 0.38 0.41 0.44 0.35 0.19 0.04 0.01 0.04 0.02 0.01 0.01 0.01 0.00 0.01 0.01 0.00 0.00 0.00 0.00 0.00 0.00 0.00 0.00 0.00 0.00 0.00 0.00 0.00 0.00 0.00 0.00
0.00 0.01 0.02 0.03 0.05 0.10 0.25 0.35 0.42 0.26 0.15 0.15 0.22 0.26 0.22 0.18 0.21 0.25 0.14 0.06 0.02 0.01 0.00 0.01 0.01 0.00 0.00 0.00 0.00 0.00 0.01 0.00 0.00 0.00 0.00 0.00 0.00 0.00 0.00 0.00 0.00 0.00 0.00 0.00 0.00 0.00 0.00
0.01 0.02 0.06 0.07 0.09 0.11 0.19 0.30 0.33 0.23 0.12 0.16 0.28 0.35 0.38 0.18 0.15 0.11 0.04 0.01 0.00 0.00 0.00 0.00 0.00 0.00 0.00 0.00 0.00 0.00 0.00 0.00 0.00 0.00 0.00 0.00 0.00 0.00 0.00 0.00 0.00 0.00 0.00 0.00 0.00 0.00 0.00
0.08 0.06 0.06 0.12 0.13 0.14 0.17 0.19 0.19 0.29 0.22 0.15 0.26 0.40 0.58 0.42 0.17 0.04 0.03 0.04 0.02 0.00 0.00 0.00 0.00 0.00 0.00 0.00 0.00 0.00 0.00 0.00 0.00 0.00 0.00 0.00 0.00 0.00 0.00 0.00 0.00 0.00 0.00 0.00 0.00 0.00 0.00
0.21 0.16 0.10 0.20 0.25 0.22 0.22 0.31 0.33 0.32 0.26 0.18 0.20 0.20 0.18 0.19 0.12 0.03 0.03 0.06 0.04 0.02 0.00 0.00 0.00 0.00 0.00 0.00 0.00 0.00 0.00 0.00 0.00 0.00 0.00 0.00 0.00 0.00 0.00 0.00 0.00 0.00 0.00 0.00 0.00 0.00 0.00
0.37 0.32 0.24 0.36 0.38 0.36 0.38 0.46 0.47 0.29 0.10 0.07 0.15 0.09 0.05 0.04 0.01 0.02 0.05 0.09 0.06 0.01 0.00 0.00 0.00 0.00 0.00 0.00 0.00 0.00 0.00 0.00 0.00 0.00 0.00 0.00 0.00 0.00 0.00 0.00 0.00 0.00 0.00 0.00 0.00 0.00 0.00
0.53 0.46 0.39 0.56 0.56 0.46 0.60 0.47 0.27 0.11 0.05 0.06 0.04 0.03 0.04 0.09 0.06 0.05 0.04 0.04 0.02 0.01 0.01 0.00 0.00 0.00 0.00 0.00 0.00 0.00 0.00 0.00 0.00 0.00 0.00 0.00 0.00 0.00 0.00 0.00 0.00 0.00 0.00 0.00 0.00 0.00 0.00
0.49 0.51 0.47 0.60 0.60 0.45 0.32 0.18 0.08 0.04 0.03 0.04 0.02 0.02 0.03 0.09 0.04 0.02 0.00 0.00 0.01 0.01 0.02 0.00 0.00 0.00 0.00 0.00 0.00 0.00 0.00 0.00 0.00 0.00 0.00 0.00 0.00 0.00 0.00 0.00 0.00 0.00 0.00 0.00 0.00 0.00 0.00
0.34 0.33 0.26 0.22 0.23 0.18 0.11 0.06 0.02 0.00 0.00 0.01 0.00 0.01 0.00 0.02 0.01 0.00 0.01 0.00 0.01 0.01 0.00 0.00 0.00 0.00 0.00 0.00 0.00 0.00 0.00 0.00 0.00 0.00 0.00 0.00 0.00 0.00 0.00 0.00 0.00 0.00 0.00 0.00 0.00 0.00 0.00
0.12 0.14 0.13 0.11 0.09 0.05 0.01 0.00 0.00 0.00 0.00 0.00 0.00 0.00 0.00 0.00 0.00 0.00 0.00 0.00 0.00 0.00 0.00 0.00 0.00 0.00 0.00 0.00 0.00 0.00 0.00 0.00 0.00 0.00 0.00 0.00 0.00 0.00 0.00 0.02 0.01 0.00 0.00 0.00 0.01 0.01 0.00
0.03 0.03 0.02 0.02 0.01 0.00 0.00 0.00 0.00 0.00 0.00 0.00 0.00 0.00 0.00 0.00 0.00 0.00 0.00 0.00 0.00 0.00 0.00 0.00 0.00 0.00 0.00 0.00 0.00 0.00 0.00 0.00 0.00 0.00 0.00 0.00 0.00 0.00 0.01 0.04 0.02 0.00 0.00 0.00 0.00 0.00 0.00
0.01 0.01 0.00 0.00 0.00 0.00 0.00 0.00 0.00 0.00 0.00 0.00 0.00 0.00 0.00 0.00 0.00 0.00 0.00 0.00 0.00 0.00 0.00 0.00 0.00 0.00 0.00 0.00 0.00 0.00 0.00 0.00 0.00 0.00 0.00 0.00 0.00 0.00 0.00 0.02 0.01 0.01 0.00 0.00 0.00 0.00 0.00
0.00 0.00 0.00 0.00 0.00 0.00 0.00 0.00 0.00 0.00 0.00 0.00 0.00 0.00 0.00 0.00 0.00 0.00 0.00 0.00 0.00 0.00 0.00 0.00 0.00 0.00 0.00 0.00 0.00 0.00 0.00 0.00 0.00 0.00 0.00 0.00 0.01 0.05 0.10 0.09 0.02 0.01 0.00 0.00 0.00 0.00 0.00
MSLP
1010.30 1010.55 1010.95 1011.42 1011.78 1012.37 1012.92 1013.25 1013.53 1013.85 1014.25 1014.66 1014.96 1015.25 1015.55 1015.75 1016.09 1016.21 1016.27 1016.46 1016.70 1016.57 1016.50 1016.62 1016.32 1016.00 1014.81 1014.28 1011.80 1009.46 1009.46 1009.44 1009.92 1009.76 1009.74 1009.74 1009.84 1009.86 1009.85 1009.57 1009.49 1009.09 1008.49 1007.80 1007.22 1006.91 1006.43
1009.15 1009.44 1009.88 1010.28 1010.67 1011.23 1011.92 1012.40 1012.72 1013.12 1013.51 1013.89 1014.28 1014.62 1014.92 1015.10 1015.63 1015.83 1015.94 1016.18 1016.43 1016.40 1016.34 1016.33 1016.32 1016.18 1015.51 1013.70 1009.85 1009.38 1009.27 1009.55 1009.78 1009.84 1009.42 1009.58 1009.63 1009.78 1009.86 1009.54 1009.63 1008.86 1008.46 1007.88 1007.12 1006.65 1006.08
1007.80 1008.26 1008.59 1009.08 1009.58 1010.03 1010.65 1011.39 1011.88 1012.25 1012.64 1013.11 1013.53 1013.93 1014.42 1014.77 1014.80 1015.40 1015.57 1015.70 1016.09 1016.16 1016.21 1016.19 1016.20 1016.18 1015.22 1011.96 1009.56 1009.17 1009.52 1009.33 1009.14 1009.37 1009.27 1009.06 1009.15 1009.62 1009.79 1009.80 1009.21 1009.10 1008.77 1007.96 1006.90 1006.40 1005.86
1006.83 1006.77 1007.21 1007.82 1008.31 1008.89 1009.36 1010.07 1010.73 1011.33 1011.79 1012.33 1012.77 1013.19 1013.69 1014.11 1014.47 1014.83 1015.21 1015.32 1015.68 1015.92 1016.07 1015.99 1016.04 1015.99 1013.68 1010.13 1009.30 1009.05 1008.82 1008.78 1008.47 1008.51 1008.76 1008.61 1008.72 1009.28 1009.63 1009.71 1009.62 1009.68 1009.37 1008.54 1006.63 1006.20 1005.54
1006.61 1006.32 1005.94 1006.40 1007.00 1007.71 1008.39 1008.90 1009.55 1010.15 1010.79 1011.44 1012.03 1012.51 1012.95 1013.58 1013.97 1014.51 1014.79 1015.21 1015.33 1015.57 1015.73 1015.71 1015.91 1015.57 1012.10 1009.47 1009.09 1007.62 1007.88 1008.23 1008.02 1007.83 1008.06 1008.52 1008.77 1009.16 1009.56 1010.31 1010.56 1010.41 1009.97 1009.19 1007.50 1006.17 1005.93
1005.73 1005.57 1005.42 1005.09 1005.50 1006.35 1007.05 1007.70 1008.34 1009.04 1009.76 1010.50 1011.18 1011.80 1012.27 1012.86 1013.48 1014.05 1014.67 1015.12 1014.80 1015.16 1014.92 1015.12 1014.91 1015.08 1011.17 1008.96 1007.80 1007.22 1007.19 1007.53 1007.75 1008.06 1008.33 1008.80 1009.38 1009.46 1009.93 1010.90 1010.99 1010.59 1010.21 1009.16 1008.33 1006.00 1006.16
1004.52 1004.68 1004.85 1004.47 1004.16 1004.75 1005.62 1006.41 1007.18 1007.92 1008.62 1009.36 1010.29 1010.98 1011.65 1012.27 1013.01 1013.82 1014.92 1015.22 1015.15 1014.98 1014.31 1012.73 1012.16 1011.16 1009.30 1008.22 1007.25 1007.31 1007.06 1007.29 1007.92 1008.26 1009.03 1009.20 1009.96 1009.76 1009.89 1010.04 1009.95 1009.96 1009.69 1009.12 1007.92 1006.79 1006.37
1003.75 1003.68 1003.97 1003.67 1003.30 1003.30 1004.00 1004.93 1005.79 1006.64 1007.39 1008.22 1009.29 1010.05 1010.94 1011.85 1012.81 1013.52 1014.16 1014.29 1013.42 1013.55 1012.59 1011.43 1010.81 1010.27 1009.20 1008.75 1008.50 1007.23 1007.44 1007.72 1008.09 1008.66 1009.05 1009.64 1009.44 1009.14 1009.32 1009.46 1009.73 1009.54 1009.04 1008.49 1007.75 1006.83 1006.43
1002.53 1002.44 1002.61 1002.69 1002.45 1002.29 1002.56 1003.32 1004.40 1005.39 1006.27 1007.13 1008.05 1009.08 1010.17 1011.55 1012.68 1013.64 1013.51 1013.21 1013.36 1013.24 1012.61 1010.03 1009.28 1008.25 1007.87 1008.21 1007.27 1006.62 1007.13 1007.09 1007.78 1008.51 1008.86 1008.89 1008.27 1008.41 1008.77 1008.80 1009.09 1008.70 1008.54 1008.28 1007.84 1007.16 1006.59
1001.15 1001.16 1001.10 1001.32 1001.62 1001.79 1001.49 1001.91 1002.79 1003.95 1004.92 1005.98 1006.91 1008.24 1009.51 1011.25 1013.20 1012.85 1013.10 1012.91 1013.63 1013.68 1012.80 1008.66 1007.50 1005.55 1005.64 1006.05 1005.62 1005.49 1005.59 1006.76 1007.35 1007.79 1008.66 1008.10 1007.78 1007.91 1007.89 1007.80 1008.16 1007.83 1007.91 1008.09 1008.14 1008.13 1008.13
999.77 999.75 999.76 1000.10 1000.37 1000.77 1000.75 1000.50 1001.32 1002.24 1003.41 1004.73 1005.78 1007.24 1008.36 1008.98 1010.57 1011.82 1011.78 1012.46 1013.69 1014.49 1012.25 1007.31 1005.53 1004.08 1004.03 1005.16 1004.29 1003.82 1004.33 1005.87 1006.25 1007.28 1007.91 1007.01 1006.91 1007.09 1007.06 1006.93 1006.89 1007.18 1007.68 1007.99 1008.32 1008.63 1008.88
998.43 998.40 998.45 998.75 998.94 999.24 999.64 999.93 1000.32 1000.91 1001.63 1002.93 1004.48 1006.04 1007.28 1009.06 1009.90 1010.41 1011.43 1012.30 1013.55 1014.35 1010.77 1007.28 1005.09 1004.25 1004.63 1004.84 1004.47 1004.31 1004.91 1005.33 1005.87 1006.90 1007.02 1007.13 1006.64 1006.74 1006.33 1006.36 1006.88 1007.28 1007.78 1008.42 1008.79 1009.33 1009.22
996.71 996.83 997.03 997.29 997.61 998.16 998.12 998.60 999.22 999.72 1000.58 1001.64 1002.68 1004.59 1006.04 1007.44 1008.55 1009.57 1010.70 1012.17 1013.32 1012.07 1009.56 1006.80 1005.40 1004.78 1004.66 1004.69 1004.88 1004.71 1005.12 1005.65 1006.11 1007.08 1007.19 1007.17 1006.72 1006.38 1006.22 1006.57 1006.96 1007.49 1008.46 1009.74 1010.34 1010.75 1009.86
994.87 995.02 995.42 995.78 996.21 996.83 997.32 997.24 997.86 998.67 999.78 1000.79 1002.08 1003.17 1004.22 1005.78 1007.41 1008.70 1009.84 1011.31 1011.08 1009.10 1008.22 1006.81 1005.66 1005.01 1005.03 1004.82 1004.96 1005.26 1005.62 1006.06 1006.27 1006.84 1007.39 1007.56 1007.55 1006.80 1006.87 1007.25 1007.53 1007.93 1008.55 1010.01 1010.78 1011.53 1011.38
992.72 993.14 993.63 994.14 994.66 995.46 996.25 996.21 996.69 997.65 998.82 999.73 1001.84 1003.71 1004.27 1005.33 1006.12 1007.44 1008.74 1008.84 1008.31 1008.28 1007.84 1006.61 1006.58 1005.69 1005.39 1004.92 1004.93 1005.44 1005.89 1006.49 1006.80 1007.11 1007.95 1008.34 1008.61 1008.34 1007.94 1007.83 1008.04 1008.96 1009.77 1010.55 1011.74 1012.87 1012.93
990.46 991.02 991.65 992.40 993.09 993.79 994.70 995.43 995.54 996.70 998.40 999.93 1001.86 1004.07 1005.19 1004.93 1006.08 1006.67 1007.12 1007.39 1008.64 1008.45 1007.66 1006.94 1006.70 1006.68 1006.03 1005.51 1005.50 1005.65 1005.92 1006.99 1007.39 1007.72 1007.75 1008.89 1009.35 1009.22 1009.07 1008.56 1009.13 1009.53 1010.56 1011.70 1013.12 1014.30 1013.87
988.02 988.76 989.63 990.55 991.47 992.27 993.20 994.06 994.38 995.57 997.71 998.89 1001.48 1003.76 1005.82 1005.46 1005.86 1006.72 1006.85 1007.52 1008.36 1007.99 1007.21 1007.56 1007.05 1006.74 1006.28 1006.24 1006.18 1006.31 1007.33 1007.99 1007.85 1008.19 1008.31 1009.11 1009.90 1010.19 1009.64 1009.68 1010.30 1011.01 1011.75 1013.01 1014.03 1014.89 1014.93
984.98 986.25 987.46 988.65 989.86 990.82 991.83 992.54 993.22 994.49 996.37 998.03 1000.97 1003.63 1005.15 1005.45 1005.89 1006.72 1006.99 1007.23 1007.44 1007.50 1007.60 1007.75 1007.45 1006.75 1006.74 1006.75 1007.24 1008.00 1008.09 1007.90 1008.23 1008.25 1009.37 1010.18 1010.71 1011.14 1010.86 1010.54 1010.74 1011.45 1012.46 1013.61 1014.72 1015.72 1015.58
980.98 983.29 985.37 987.16 988.62 989.64 990.40 991.10 992.01 993.22 994.18 997.70 1001.72 1004.05 1005.11 1005.14 1004.85 1006.11 1006.85 1006.98 1006.99 1007.46 1007.44 1007.52 1007.62 1007.14 1006.92 1007.43 1008.15 1008.19 1008.59 1008.86 1008.73 1009.16 1009.67 1010.41 1011.42 1012.15 1011.79 1012.06 1012.04 1012.21 1012.95 1014.18 1015.20 1015.86 1015.78
975.32 980.31 983.57 985.84 987.36 988.48 989.35 990.16 991.03 992.25 993.25 996.84 1000.30 1003.83 1005.06 1005.41 1005.17 1005.76 1005.93 1006.48 1006.92 1007.40 1007.54 1007.32 1007.52 1007.36 1007.30 1007.62 1008.41 1008.92 1009.26 1009.70 1009.59 1009.94 1010.43 1010.81 1012.12 1012.63 1012.56 1013.28 1013.46 1013.49 1013.48 1014.30 1015.40 1015.92 1015.71
970.01 978.61 982.36 984.75 986.54 987.88 988.65 990.02 991.35 993.51 994.32 995.97 999.24 1001.47 1001.43 1004.42 1005.25 1005.59 1005.58 1005.97 1006.50 1006.98 1007.13 1007.64 1007.58 1007.70 1007.85 1008.27 1008.72 1009.47 1010.25 1010.85 1010.87 1011.12 1011.72 1012.29 1013.07 1013.38 1013.43 1013.95 1014.27 1014.21 1014.07 1014.74 1015.07 1015.11 1015.35
973.25 978.37 982.42 984.97 987.04 988.41 989.20 991.03 992.17 993.90 994.32 996.23 998.04 999.89 1001.63 1002.96 1004.68 1004.68 1005.44 1006.02 1006.24 1006.64 1006.82 1007.64 1007.81 1008.46 1008.69 1009.21 1009.48 1010.15 1010.84 1011.20 1011.37 1012.09 1012.57 1013.24 1014.23 1014.58 1014.57 1014.95 1014.98 1014.38 1014.09 1014.63 1014.62 1014.28 1013.75
977.88 980.38 983.69 986.43 988.41 989.18 991.04 992.29 993.37 994.13 994.49 995.64 997.55 998.60 999.76 1002.48 1003.95 1004.95 1005.42 1005.35 1006.09 1006.20 1007.11 1007.42 1007.60 1008.52 1009.07 1009.49 1009.87 1010.67 1011.18 1011.75 1012.05 1012.43 1013.09 1013.94 1014.77 1015.64 1015.11 1015.77 1015.68 1014.66 1013.36 1013.35 1013.28 1012.85 1012.50
981.72 983.69 985.72 987.97 989.32 990.65 991.92 993.24 993.74 994.47 994.76 996.42 998.13 998.05 999.52 1002.14 1004.47 1004.59 1004.96 1005.51 1006.14 1006.32 1007.29 1007.88 1008.16 1008.70 1009.87 1009.94 1010.72 1011.56 1012.04 1012.41 1012.59 1012.68 1012.88 1014.08 1015.47 1016.60 1016.53 1016.56 1016.07 1013.27 1012.52 1012.43 1012.29 1011.78 1010.76
986.93 987.74 989.03 989.91 990.89 992.51 993.60 994.36 994.50 994.76 996.03 997.00 998.22 999.10 1000.38 1002.92 1003.80 1004.69 1005.52 1006.47 1006.75 1007.24 1008.31 1008.25 1008.35 1009.01 1009.40 1010.45 1012.19 1013.10 1013.60 1013.38 1012.75 1012.27 1012.72 1013.42 1015.37 1016.68 1017.29 1016.68 1015.19 1012.87 1011.94 1011.70 1011.70 1011.05 1010.79
990.52 991.23 992.15 992.94 993.58 994.04 994.16 994.76 995.07 996.13 996.46 997.61 999.22 999.32 1000.63 1002.91 1004.66 1004.83 1005.27 1006.51 1007.25 1008.38 1009.03 1009.23 1009.18 1009.62 1010.18 1011.83 1013.51 1014.77 1014.42 1013.64 1013.30 1012.47 1012.26 1013.69 1014.71 1016.55 1016.76 1016.37 1014.97 1012.64 1011.59 1010.92 1011.20 1010.61 1010.09
993.48 994.00 994.53 994.96 995.19 995.42 995.64 996.54 996.93 997.40 997.77 998.35 999.60 999.82 1001.25 1002.95 1004.72 1004.58 1005.26 1006.32 1006.94 1008.21 1009.55 1009.86 1010.21 1011.17 1011.32 1013.50 1015.22 1015.19 1014.95 1014.25 1014.09 1013.59 1013.43 1013.92 1014.92 1015.99 1015.87 1015.44 1013.84 1011.81 1011.27 1010.50 1010.75 1010.42 1009.68
996.05 996.29 996.70 997.11 997.31 997.67 998.00 998.21 998.46 998.62 998.86 998.97 1001.15 1001.17 1001.70 1004.04 1005.31 1004.83 1005.05 1005.78 1006.84 1007.64 1009.27 1010.26 1011.25 1012.33 1013.59 1014.85 1015.74 1015.74 1015.47 1015.15 1014.85 1013.85 1013.33 1013.92 1014.46 1015.11 1014.84 1014.38 1013.19 1011.63 1010.98 1010.80 1010.05 1009.44 1009.21
998.38 998.47 998.77 999.03 999.28 999.46 999.68 1000.05 1000.30 1000.35 1000.57 1000.59 1002.22 1002.55 1003.07 1004.26 1005.90 1005.50 1005.61 1005.80 1006.25 1007.18 1008.48 1010.24 1011.09 1012.08 1013.29 1014.65 1015.88 1015.91 1016.24 1015.77 1014.98 1014.58 1013.37 1013.55 1013.34 1013.42 1013.62 1012.73 1012.20 1011.89 1011.33 1009.89 1009.58 1009.17 1008.77
Thickness
5648 5650 5652 5651 5652 5651 5650 5651 5651 5653 5653 5652 5652 5651 5648 5646 5646 5646 5645 5643 5640 5642 5643 5642 5646 5650 5660 5658 5670 5707 5706 5707 5704 5705 5700 5698 5692 5693 5688 5696 5695 5697 5706 5718 5725 5725 5724
5640 5642 5643 5645 5647 5646 5643 5643 5645 5646 5646 5647 5646 5646 5645 5642 5641 5641 5640 5638 5635 5635 5636 5637 5639 5642 5648 5651 5694 5701 5706 5702 5698 5697 5698 5696 5693 5694 5688 5691 5686 5700 5703 5710 5719 5719 5724
5633 5636 5637 5639 5640 5640 5640 5638 5638 5639 5641 5641 5641 5640 5638 5636 5636 5634 5634 5634 5630 5630 5630 5631 5631 5635 5642 5664 5691 5697 5696 5698 5698 5696 5691 5696 5697 5689 5687 5682 5695 5695 5689 5700 5715 5716 5717
5624 5631 5633 5632 5634 5633 5635 5635 5633 5633 5635 5634 5634 5634 5633 5631 5628 5628 5627 5628 5625 5623 5623 5623 5625 5627 5647 5679 5687 5690 5696 5693 5698 5698 5694 5695 5696 5687 5683 5686 5682 5675 5677 5674 5708 5711 5718
5608 5616 5626 5629 5629 5628 5628 5629 5629 5628 5628 5628 5626 5626 5626 5624 5620 5618 5619 5619 5618 5616 5616 5615 5617 5620 5649 5680 5675 5696 5693 5687 5692 5697 5695 5691 5687 5677 5677 5659 5652 5657 5647 5658 5682 5704 5700
5596 5603 5612 5621 5624 5624 5623 5624 5624 5623 5621 5620 5619 5617 5617 5617 5613 5612 5609 5608 5610 5610 5611 5612 5615 5612 5648 5666 5681 5689 5694 5687 5682 5680 5677 5671 5659 5659 5654 5640 5630 5639 5640 5657 5661 5695 5693
5589 5592 5598 5610 5619 5621 5620 5619 5618 5617 5616 5614 5611 5609 5608 5609 5604 5601 5596 5594 5599 5601 5605 5622 5624 5633 5651 5669 5680 5675 5683 5679 5670 5666 5649 5655 5636 5643 5648 5648 5651 5651 5648 5646 5668 5686 5675
5574 5584 5585 5598 5609 5616 5618 5617 5615 5614 5613 5610 5605 5604 5600 5598 5594 5592 5590 5591 5602 5597 5602 5621 5625 5629 5646 5651 5640 5662 5669 5656 5652 5642 5646 5638 5629 5655 5655 5651 5645 5644 5645 5650 5661 5675 5675
5559 5570 5577 5586 5595 5607 5613 5615 5612 5610 5608 5606 5602 5599 5594 5586 5582 5579 5585 5590 5585 5588 5588 5618 5628 5635 5644 5639 5638 5652 5656 5654 5646 5635 5636 5633 5646 5652 5648 5646 5639 5643 5638 5642 5645 5659 5666
5543 5555 5567 5576 5582 5593 5604 5611 5611 5607 5605 5602 5598 5592 5587 5577 5567 5575 5575 5580 5573 5576 5571 5609 5626 5644 5647 5646 5640 5661 5664 5647 5634 5636 5634 5631 5648 5644 5639 5636 5639 5631 5645 5640 5637 5629 5619
5524 5540 5554 5562 5574 5581 5593 5606 5608 5607 5604 5598 5594 5586 5584 5585 5576 5569 5578 5569 5563 5558 5560 5615 5620 5650 5651 5639 5648 5655 5663 5640 5636 5630 5627 5632 5637 5635 5631 5636 5639 5629 5633 5631 5628 5619 5613
5504 5522 5538 5549 5563 5572 5584 5595 5601 5605 5604 5598 5589 5584 5579 5566 5568 5571 5564 5559 5551 5533 5554 5598 5616 5619 5623 5630 5635 5639 5634 5639 5637 5624 5622 5621 5636 5630 5632 5635 5627 5627 5618 5609 5605 5599 5593
5485 5504 5521 5536 5549 5559 5576 5587 5594 5596 5596 5595 5590 5579 5572 5568 5565 5561 5554 5542 5522 5537 5572 5598 5602 5607 5607 5609 5615 5619 5614 5608 5605 5596 5598 5613 5613 5622 5627 5611 5610 5608 5590 5567 5569 5565 5579
5462 5484 5504 5522 5536 5550 5560 5578 5587 5586 5586 5588 5580 5575 5569 5565 5556 5551 5545 5524 5529 5560 5571 5588 5600 5602 5593 5598 5596 5597 5595 5590 5603 5598 5590 5585 5580 5600 5602 5595 5589 5591 5584 5562 5561 5559 5567
5437 5461 5484 5507 5525 5539 5554 5566 5577 5581 5577 5581 5570 5550 5547 5551 5549 5545 5538 5528 5550 5557 5566 5580 5579 5581 5583 5591 5590 5585 5580 5577 5577 5582 5571 5567 5566 5577 5581 5583 5583 5571 5556 5566 5549 5543 5538
5416 5439 5463 5488 5511 5528 5543 5556 5569 5569 5564 5564 5550 5534 5527 5540 5534 5535 5535 5535 5524 5536 5546 5563 5561 5558 5565 5575 5573 5572 5574 5567 5563 5566 5567 5559 5549 5558 5561 5570 5564 5559 5556 5537 5526 5521 5521
5407 5421 5444 5469 5493 5516 5531 5543 5559 5562 5554 5553 5536 5520 5515 5519 5526 5518 5519 5515 5508 5525 5544 5539 5543 5539 5555 5553 5558 5553 5543 5546 5553 5551 5551 5549 5533 5540 5552 5544 5536 5533 5522 5517 5513 5501 5482
5402 5410 5430 5455 5476 5501 5518 5533 5548 5553 5547 5544 5524 5508 5506 5505 5500 5491 5504 5510 5515 5517 5527 5517 5529 5536 5539 5539 5535 5527 5528 5535 5537 5543 5533 5529 5520 5511 5531 5536 5534 5527 5518 5506 5457 5446 5460
5415 5409 5417 5436 5461 5484 5506 5521 5540 5543 5554 5532 5496 5485 5483 5490 5498 5494 5495 5500 5509 5501 5508 5513 5512 5523 5529 5524 5506 5521 5517 5519 5523 5520 5518 5518 5496 5489 5516 5509 5512 5513 5507 5494 5477 5455 5454
5445 5415 5412 5426 5448 5474 5495 5511 5530 5541 5545 5517 5490 5468 5460 5466 5480 5488 5494 5492 5489 5497 5494 5503 5505 5510 5511 5509 5504 5500 5503 5501 5507 5503 5506 5503 5490 5493 5493 5479 5479 5480 5488 5475 5453 5412 5439
5474 5423 5418 5429 5444 5471 5490 5502 5508 5508 5517 5507 5482 5477 5487 5469 5467 5479 5484 5482 5479 5475 5494 5488 5491 5496 5493 5483 5487 5483 5482 5475 5481 5486 5479 5474 5464 5473 5479 5466 5462 5464 5466 5456 5440 5439 5416
5452 5432 5425 5432 5445 5461 5473 5470 5484 5487 5499 5491 5481 5477 5478 5481 5472 5479 5474 5468 5467 5467 5473 5468 5469 5475 5473 5461 5473 5460 5461 5459 5463 5462 5458 5455 5435 5451 5453 5445 5441 5444 5453 5440 5429 5424 5422
5444 5440 5434 5430 5427 5446 5457 5461 5469 5478 5490 5484 5483 5488 5490 5470 5465 5461 5456 5460 5462 5472 5466 5470 5471 5460 5457 5457 5457 5452 5452 5448 5446 5441 5436 5431 5424 5416 5424 5424 5412 5393 5444 5428 5416 5423 5419
5446 5440 5436 5430 5433 5439 5450 5450 5460 5474 5484 5476 5473 5487 5485 5459 5445 5445 5461 5460 5457 5456 5444 5452 5454 5450 5445 5448 5442 5436 5436 5436 5434 5431 5428 5412 5401 5380 5375 5385 5315 5425 5432 5423 5414 5422 5433
5424 5428 5429 5433 5437 5432 5434 5439 5452 5467 5462 5461 5457 5462 5457 5440 5442 5442 5439 5434 5439 5436 5433 5438 5443 5441 5437 5430 5405 5404 5395 5407 5420 5427 5415 5413 5386 5355 5340 5362 5387 5426 5423 5414 5403 5404 5414
5413 5413 5410 5412 5421 5422 5432 5437 5444 5443 5450 5449 5442 5450 5443 5430 5420 5431 5433 5425 5413 5414 5418 5418 5422 5422 5418 5392 5377 5375 5374 5402 5409 5421 5416 5398 5385 5368 5343 5354 5345 5404 5407 5410 5397 5387 5406
5404 5403 5402 5404 5409 5416 5423 5421 5426 5429 5433 5436 5432 5439 5435 5423 5416 5427 5415 5414 5413 5401 5387 5397 5406 5400 5396 5359 5361 5368 5377 5392 5385 5395 5392 5373 5345 5347 5356 5346 5371 5401 5400 5401 5374 5383 5400
5392 5394 5394 5395 5399 5402 5405 5409 5414 5421 5424 5430 5416 5425 5426 5405 5405 5414 5416 5409 5400 5391 5376 5384 5375 5368 5350 5333 5342 5336 5359 5366 5368 5379 5380 5372 5338 5315 5323 5314 5344 5385 5388 5378 5385 5394 5396
5379 5381 5382 5384 5386 5390 5393 5394 5397 5403 5407 5413 5404 5408 5408 5398 5393 5401 5403 5404 5403 5397 5380 5360 5364 5359 5345 5330 5319 5324 5327 5318 5352 5345 5368 5344 5352 5344 5350 5351 5361 5361 5363 5379 5383 5387 5388